STARLINK-1814 (46712 NORAD) Tracking and Keplerian Element Data

This shows tracking and keplerian element data for the satellite.

Feedback or suggestion? Click here.




ElementValue
Catalog46712
NameSTARLINK-1814
Epoch Orbit1522
Epoch Day21.16668981
Epoch Year2021
RAAN12.1771
Inclination53.0539
Eccentricity0.0001593
Argument of Perigee59.7125
Mean Anonmoly336.9977
Mean Motion15.06415274
Decay Rate-0.00064924
L11 46712U 20073AU 21021.16668981 -.00064924 00000-0 -43778-2 0 9991
L22 46712 53.0539 12.1771 0001593 59.7125 336.9977 15.06415274 15222

Live tracking and technical data element details for STARLINK-1814 (NORAD 46712). STARLINK-1814 can be tracked NOW for your location showing map with azimuth and elevation plus other details from your city location.

Track the satellite on the map from your city or location and see movement details for azimuth, elevation, latitude, longitude, range, height, and movement on the map or in text.







IsCatalogInMostPopularTable: catalog: 46712, numindb: 37
Update: records affected: 1



GetName: 46712 STARLINK-1814

Hit Count: updated at: Fri, 22 Jan 2021 15:06:51 GMT